Flag for Canada Weather past 2 weeks in Creighton, Saskatchewan, Canada

Now
61 °F

Partly sunny.


Feels Like: 61 °F
Forecast: 44 / 73 °F
Wind: 9 mph from Northwest

Location: The Pas

Current Time: Jul 8, 2015 at 12:17:31 AM

Latest Report: Jul 7, 2015 at 11:00 PM


Visibility: 15 mi

Pressure: 29.95 "Hg

Humidity: 55%

Dew point: 45 °F

Location of CreightonLocation

Historic Weather in Creighton — Graph

°F

Creighton temperature yesterday

Maximum temperature yesterday: 66 °F (at 4:00 PM)
Minimum temperature yesterday: 52 °F (at 4:00 AM)
Average temperature yesterday: 61 °F

Past Weeks' High & Low Weather Summary

 TemperatureHumidityPressure
High88 °F (Jun 28, 5:00 PM)100% (Jun 24, 3:00 AM)30.16 "Hg (Jun 24, 3:00 AM)
Low41 °F (Jul 6, 3:00 AM)27% (Jun 25, 5:00 PM)29.64 "Hg (Jul 4, 5:00 AM)
Average66 °F68%29.90 "Hg
* Reported Jun 22 11:00 PM — Jul 7 11:00 PM, Creighton, Weather by CustomWeather, © 2015

Note: Actual official high and low records may vary slightly from our data, if they occured in-between our weather recording intervals... More about our weather records

Advertising

Creighton weather history for previous 24 hours

 ConditionsComfort  
Time TempWeatherWind HumidityBarometerVisibility
11:00 PM
Tue, Jul 7
61 °FPartly sunny.9 mph55%29.95 "Hg15 mi
10:00 PM61 °FBroken clouds.10 mph52%29.94 "Hg15 mi
9:00 PM63 °FBroken clouds.9 mph52%29.91 "Hg15 mi
8:00 PM64 °FScattered clouds.9 mph52%29.91 "Hg15 mi
7:00 PM66 °FScattered clouds.12 mph49%29.90 "Hg15 mi
6:00 PM66 °FScattered clouds.6 mph46%29.90 "Hg15 mi
5:00 PM66 °FScattered clouds.9 mph43%29.90 "Hg15 mi
4:00 PM66 °FBroken clouds.12 mph49%29.91 "Hg15 mi
3:00 PM64 °FMostly cloudy.10 mph56%29.90 "Hg12 mi
2:00 PM59 °FOvercast.9 mph82%29.91 "Hg1 mi
1:00 PM59 °FLight rain. Overcast.13 mph82%29.91 "Hg1 mi
12:50 PM61 °FLight rain. Mostly cloudy.15 mph72%29.91 "Hg2 mi
12:00 PM63 °FOvercast.14 mph64%29.90 "Hg2 mi
11:00 AM64 °FOvercast.12 mph60%29.89 "Hg2 mi
10:00 AM63 °FPartly sunny.14 mph64%29.89 "Hg2 mi
9:00 AM63 °FPartly sunny.15 mph59%29.90 "Hg3 mi
8:00 AM57 °FBroken clouds.10 mph67%29.90 "Hg3 mi
7:00 AM55 °FMostly cloudy.10 mph67%29.92 "Hg3 mi
6:00 AM52 °FPassing clouds.8 mph77%29.94 "Hg3 mi
5:00 AM52 °FClear.8 mph77%29.95 "Hg2 mi
4:00 AM52 °FClear.6 mph77%29.96 "Hg4 mi
3:00 AM57 °FClear.7 mph67%29.98 "Hg3 mi
2:00 AM59 °FClear.7 mph63%29.99 "Hg3 mi
1:00 AM61 °FClear.7 mph59%30.00 "Hg3 mi
12:00 AM61 °FFog.10 mph52%30.01 "Hg3 mi
Weather by CustomWeather, © 2015

See weather overviewHow to use our weather pages